Location: Dehesa de la Cepeda
(40.6574°N, 4.3013°W)
Time: 10:34:57
(UTC+00:00)

Transit 2A Rocket - Pass Details

Date: 07 August 2021
Orbit: 586 x 917 km, 66.7° (Epoch: 24 September)

Event Time Altitude Azimuth Distance (km) Brightness Sun altitude
Rises 14:40:39 0° 271° (W) 2,915 8.5 51.5°
Reaches altitude 10° 14:44:58 10° 311° (NW) 2,090 7.6 50.8°
Maximum altitude 14:46:00 11° 324° (NW) 2,069 7.5 50.6°
Drops below altitude 10° 14:47:03 10° 337° (NNW) 2,134 7.4 50.5°
Sets 14:51:43 0° 15° (NNE) 3,161 7.9 49.7°
